GFSNE_sfc_30mbdewp_042.txt.gz
Dewpoint
33 33 34 35 35 34 32 32 27 23 22 21 23 28 30 31 31 31 27 31 37 37 36 36 37 38 41 43 44 43 46 42 40 39 41 42 42 44
30 25 24 25 24 25 24 25 27 27 23 21 20 26 29 29 31 26 25 27 27 34 37 35 35 36 38 41 41 41 41 41 36 35 33 35 37 38
23 22 22 23 23 23 23 22 22 23 21 20 23 25 26 28 26 22 24 24 27 28 32 34 35 35 35 38 40 39 39 39 39 38 33 32 31 34
22 22 22 22 19 20 21 21 22 23 23 23 24 25 24 24 22 22 22 21 24 22 27 27 32 36 35 35 38 39 39 38 38 38 37 34 31 31
22 22 22 20 19 20 21 22 22 24 26 25 24 24 23 23 22 23 22 22 22 22 22 23 27 28 36 35 35 38 37 38 38 36 36 35 35 32
23 23 22 22 21 21 22 20 21 22 22 22 22 22 24 24 24 22 21 22 21 21 23 25 25 26 29 31 36 36 34 36 36 38 37 36 35 34
24 24 23 23 24 23 22 21 20 20 20 20 20 20 21 22 21 22 21 20 22 23 23 23 23 24 28 28 29 31 35 36 36 36 36 36 34 34
25 24 24 22 22 21 20 19 19 20 21 20 20 20 20 21 22 22 21 21 20 23 23 23 26 24 25 25 25 26 30 31 36 36 36 35 35 34
20 20 19 18 19 20 20 20 21 22 22 24 23 22 22 23 23 23 22 22 22 23 23 22 24 25 26 26 28 29 30 29 30 33 35 35 35 33
19 19 19 19 20 19 20 22 22 22 22 23 21 22 24 24 25 25 25 23 24 23 24 22 24 23 26 26 26 27 27 28 30 31 31 32 33 34
18 19 18 19 20 21 24 22 21 21 22 22 25 25 25 25 24 25 23 23 21 21 25 25 23 23 23 23 25 26 27 28 30 32 31 31 32 32
19 19 19 20 20 19 21 22 20 21 22 23 24 25 25 25 25 25 24 21 21 19 21 23 21 22 21 23 24 25 26 28 30 31 32 32 33 33
18 19 20 20 18 19 20 21 22 23 22 22 23 25 27 26 26 26 25 23 21 20 23 24 23 23 24 23 24 25 25 26 28 30 32 32 33 33
18 20 20 17 16 17 19 21 21 21 21 21 20 21 22 23 26 28 28 26 25 23 24 27 26 25 24 23 23 24 25 25 25 26 26 27 29 33
19 15 15 15 16 17 16 19 19 19 18 17 18 19 21 24 25 26 27 30 29 28 29 30 28 27 27 25 25 24 24 25 24 25 26 27 28 29
16 15 14 15 14 15 15 16 18 17 16 16 17 18 20 21 22 25 25 25 25 27 29 30 31 30 28 27 27 26 26 23 25 26 26 26 28 29
12 12 12 11 11 13 13 13 14 12 12 14 15 15 16 18 20 23 23 23 22 23 25 27 29 30 31 29 27 27 27 27 27 27 26 25 26 28
9 10 10 9 9 11 12 12 11 9 10 12 13 13 14 15 18 20 20 20 20 22 23 24 22 26 28 26 28 27 27 26 25 25 25 25 24 27
8 7 8 9 9 10 12 11 10 7 9 10 11 11 12 14 16 17 17 18 18 19 20 22 22 21 18 17 19 26 24 23 21 21 23 26 25 25
10 9 8 9 10 9 11 10 9 6 5 7 8 8 9 11 13 14 15 14 14 16 16 17 19 20 19 19 20 22 25 23 21 20 21 22 23 24
10 10 9 9 10 8 8 7 7 6 4 5 6 7 7 9 11 12 13 12 11 13 13 14 16 19 21 21 20 20 21 23 22 22 21 20 20 22
12 10 10 9 9 7 7 7 5 4 3 4 6 6 7 7 9 10 11 10 10 12 12 15 18 21 21 21 20 19 21 21 23 24 23 25 22 18
13 11 9 8 7 7 7 8 6 3 3 3 5 6 6 6 8 8 9 9 9 9 11 13 14 16 19 19 20 19 19 20 21 21 20 22 25 26

GFSNE_sfc_30mbdewp_048.txt.gz
Dewpoint
32 32 29 25 24 23 21 20 20 19 15 15 14 15 15 16 17 19 20 22 26 29 31 29 29 29 32 34 34 33 38 43 43 49 52 53 53 51
30 26 25 22 21 20 18 17 17 16 14 13 12 14 15 15 17 19 20 24 24 26 30 29 30 30 31 34 35 34 36 40 41 43 50 51 51 52
26 25 22 21 20 19 19 17 16 15 13 13 13 14 15 16 17 20 22 20 19 24 30 27 27 28 28 30 36 35 37 39 41 40 42 47 51 51
24 23 21 20 20 19 18 17 17 16 15 14 14 14 14 15 16 16 19 19 19 18 26 24 25 26 26 29 32 36 37 38 39 39 40 40 41 43
23 23 22 21 19 18 18 17 17 16 16 17 16 15 14 15 15 16 18 18 18 20 23 23 24 25 25 26 28 33 36 37 38 38 38 38 37 37
24 24 22 20 20 19 17 16 14 14 15 19 18 14 14 14 14 14 14 16 17 18 21 23 21 21 23 24 27 28 34 37 37 38 37 38 37 36
22 19 17 17 16 17 17 16 16 15 14 15 14 15 15 15 14 14 14 15 16 17 18 20 18 18 19 26 24 26 31 36 35 37 38 38 37 37
17 16 14 13 14 17 17 18 18 16 16 16 17 17 17 17 16 17 20 16 18 18 21 23 20 22 20 19 27 26 27 29 36 37 37 38 38 37
17 15 13 12 15 15 16 17 19 24 26 24 20 19 21 22 20 19 17 17 17 18 20 23 22 21 22 20 22 24 28 30 30 33 37 35 36 36
17 16 15 15 15 19 16 19 18 17 18 17 19 22 21 19 19 23 25 22 20 18 18 18 20 21 22 24 26 27 28 28 29 30 31 36 36 36
19 17 16 15 17 17 19 19 18 18 17 19 19 20 21 22 23 28 22 22 22 21 18 24 20 20 21 23 26 28 28 28 28 30 29 30 34 36
19 16 16 17 16 16 17 18 18 18 16 17 17 17 18 20 24 29 25 23 18 20 15 26 19 17 19 21 23 25 28 28 29 29 30 30 31 30
19 16 15 16 15 15 15 16 18 17 17 19 18 18 20 20 20 22 24 28 25 23 17 20 16 18 20 25 25 26 27 30 28 28 30 31 32 29
19 17 17 15 14 14 15 15 14 15 19 16 18 18 19 19 20 21 24 25 29 29 27 26 20 23 25 24 21 25 26 28 28 28 29 30 31 32
19 18 16 13 12 13 13 13 14 13 12 13 16 17 19 21 24 26 27 30 32 32 29 29 27 27 27 24 26 23 24 25 28 28 29 30 31 28
19 17 15 15 13 11 12 12 12 10 9 13 15 18 19 21 23 25 24 24 28 30 31 31 30 29 26 27 25 27 25 25 27 29 29 31 33 32
18 17 15 14 10 9 10 11 11 8 7 12 15 15 17 17 19 22 22 23 25 24 28 30 31 31 31 30 29 24 24 26 29 30 27 26 27 30
16 17 16 16 13 10 9 10 10 8 6 8 12 13 14 16 17 19 20 21 22 22 23 24 26 30 28 28 27 29 27 29 27 27 26 26 27 28
17 17 18 16 15 11 8 7 7 7 8 6 10 11 12 12 16 18 18 18 18 18 19 20 22 22 21 24 25 25 29 25 25 26 25 26 26 28
19 18 17 17 15 10 8 7 8 10 9 7 9 11 12 11 12 14 16 16 15 14 15 17 20 22 22 23 23 26 25 27 24 23 23 24 25 24
20 18 18 17 15 13 12 13 12 12 10 10 10 10 11 10 11 11 11 12 12 11 16 18 19 22 22 24 24 24 25 24 24 25 22 22 23 23
21 20 18 18 17 15 14 14 13 12 10 8 9 11 11 10 10 10 10 10 10 12 17 19 21 23 23 21 25 23 23 24 24 23 24 24 24 24
23 23 21 20 19 17 15 13 12 12 11 8 8 10 10 10 9 9 9 9 9 11 14 16 19 22 22 20 21 24 22 22 22 23 25 23 24 25

GFSNE_sfc_30mbdewp_051.txt.gz
Dewpoint
32 34 31 30 27 23 22 21 20 20 17 15 15 15 17 18 19 20 21 21 24 26 26 26 26 28 27 27 28 29 31 33 34 36 42 43 47 52
31 30 28 26 24 23 22 20 19 17 16 14 14 16 17 14 16 19 20 25 24 26 27 28 29 29 28 27 28 30 33 34 35 36 41 41 45 51
29 30 27 25 24 22 21 21 17 17 15 17 17 18 19 19 18 20 20 21 21 21 24 25 27 29 27 27 27 27 29 34 36 36 39 40 42 46
30 29 27 24 24 22 19 16 17 17 16 16 16 16 16 19 19 19 17 16 19 18 22 25 27 27 27 28 27 29 30 33 36 37 38 40 39 41
29 26 25 24 20 17 18 18 17 15 16 15 15 17 18 19 17 17 17 18 17 19 21 22 25 27 28 27 28 28 28 30 35 37 38 39 39 39
27 26 22 18 17 19 16 15 14 14 14 14 13 13 14 16 17 16 17 18 18 17 19 19 22 24 26 29 29 27 27 29 33 37 37 37 38 38
22 18 17 17 16 16 15 15 16 15 14 13 14 14 14 14 17 19 18 18 20 21 19 18 20 21 23 26 26 27 29 30 33 37 36 38 37 38
17 17 16 16 15 16 18 20 19 15 15 16 17 18 19 16 18 24 24 21 20 21 22 22 22 23 22 26 27 27 29 29 30 35 36 37 37 37
18 17 16 14 16 17 18 17 16 20 22 22 21 19 21 24 22 20 19 19 20 23 22 24 24 24 27 21 24 25 26 27 28 30 36 36 37 37
19 19 17 16 17 19 17 15 17 18 18 19 19 19 19 18 19 19 21 23 25 24 21 20 22 22 24 23 23 27 26 27 29 29 30 34 36 37
20 19 18 16 19 18 15 16 16 17 17 19 17 17 19 21 22 24 24 24 23 21 23 24 25 23 25 23 26 27 29 28 29 29 29 29 32 36
20 18 18 17 17 16 15 16 16 17 13 14 16 19 18 19 23 23 26 25 25 23 21 25 23 25 21 24 26 27 31 29 29 29 30 30 29 31
20 18 18 18 18 15 15 16 19 15 14 18 19 17 20 20 22 23 23 24 23 22 24 27 20 21 19 22 32 28 29 31 30 28 30 30 30 28
20 20 20 19 17 14 14 15 15 15 18 14 15 17 17 19 21 23 25 26 27 27 30 30 25 19 20 24 23 26 28 31 31 30 31 30 31 31
21 20 20 18 15 14 14 13 16 15 12 12 13 16 18 19 22 25 26 25 26 31 32 30 27 24 24 24 27 30 26 27 28 31 29 30 32 31
24 23 19 19 18 17 16 14 14 14 11 11 12 15 18 18 19 21 23 23 25 30 29 29 29 28 26 25 27 27 28 26 28 30 29 30 34 32
21 19 19 19 17 15 13 12 13 12 11 9 11 12 12 15 17 19 21 22 22 23 26 30 31 31 29 29 27 28 31 28 27 29 29 27 31 35
20 18 18 22 19 18 14 13 12 11 11 10 10 11 12 12 13 18 19 20 21 21 22 23 23 28 29 28 27 29 32 31 30 27 27 29 30 31
20 19 20 21 20 18 15 12 11 11 12 11 10 12 12 12 14 15 17 17 16 16 18 21 22 22 23 25 26 26 29 26 28 27 27 28 29 30
20 19 19 21 20 17 14 12 13 14 15 13 12 13 13 12 12 12 11 13 14 14 15 19 26 20 20 22 24 26 26 27 27 26 25 24 28 24
22 24 24 21 20 18 17 17 17 15 15 14 13 13 13 12 11 11 11 12 12 12 16 17 19 22 22 24 23 24 24 24 25 27 25 25 28 25
24 22 23 22 21 20 20 19 18 17 15 13 13 13 13 12 11 10 11 10 10 10 15 18 24 25 23 22 25 23 24 26 23 23 24 24 24 25
25 25 25 24 24 22 20 19 17 16 15 13 13 13 12 12 11 11 10 10 9 9 10 16 19 25 22 19 20 25 22 23 24 23 24 23 24 24

GFSNE_sfc_30mbdewp_054.txt.gz
Dewpoint
36 36 36 35 33 30 27 25 24 22 21 20 19 19 21 20 20 21 22 23 28 27 27 28 27 26 25 26 28 27 27 27 30 32 33 35 36 42
35 34 33 33 29 27 25 25 24 23 20 19 18 20 21 20 20 21 22 24 23 25 25 25 27 26 27 27 29 28 26 25 26 29 33 34 35 40
31 32 31 30 28 27 27 25 23 23 20 19 20 20 21 21 21 22 22 20 19 21 24 24 26 26 25 29 30 28 26 24 24 27 32 34 35 39
32 31 30 28 27 27 26 23 22 20 18 17 17 17 18 20 20 21 19 18 19 19 22 24 25 26 27 29 29 30 29 28 28 27 29 34 37 38
30 29 27 26 25 23 21 19 18 17 18 17 16 17 17 18 18 19 19 19 20 20 20 20 21 23 27 30 30 30 30 30 29 30 31 36 37 38
29 28 27 24 19 17 16 16 15 17 17 16 15 15 16 17 18 18 20 21 21 20 21 22 23 23 22 27 30 30 30 30 30 30 32 36 37 37
26 23 20 18 16 18 14 16 18 18 17 15 15 16 17 19 19 19 21 25 24 24 24 22 23 25 24 26 26 28 30 31 30 32 33 36 37 37
22 20 20 18 20 18 22 20 20 18 18 18 20 21 21 17 22 26 24 20 18 21 23 22 25 25 25 26 26 31 31 29 32 30 32 37 37 37
22 21 20 17 22 20 19 19 16 17 19 20 20 23 24 23 22 19 18 18 19 21 22 22 24 24 26 23 24 26 27 29 29 29 30 36 34 37
23 22 21 20 20 19 19 18 17 17 18 18 21 24 21 19 19 20 21 22 23 23 24 24 24 23 25 25 26 27 27 28 28 28 28 30 36 37
23 23 22 20 20 19 18 17 17 17 17 16 14 15 18 20 21 23 23 23 21 23 26 28 26 26 26 26 28 28 28 29 29 29 29 29 30 36
23 22 21 19 19 18 17 16 17 18 17 15 16 19 20 20 22 24 27 24 23 20 22 23 26 25 25 29 31 29 28 29 30 30 30 29 28 32
24 22 22 20 20 18 16 17 18 18 17 18 20 17 20 22 22 23 24 23 23 22 23 26 27 27 23 22 29 31 31 29 29 30 30 30 30 28
23 23 23 22 20 19 17 16 17 17 18 18 15 16 18 20 21 22 24 27 28 27 28 31 28 27 25 23 23 29 32 31 31 29 28 29 30 29
24 24 23 22 22 20 18 17 16 17 19 14 14 15 16 19 21 21 22 23 25 26 32 32 30 28 26 25 25 27 30 29 30 31 30 30 29 30
24 25 26 22 20 20 19 20 19 19 15 14 13 14 17 16 17 20 20 22 22 24 30 32 31 30 28 26 26 26 27 29 29 29 27 28 31 31
25 22 21 21 22 20 19 17 16 16 14 14 12 14 15 15 15 17 19 21 21 21 22 25 30 31 30 29 27 27 28 31 31 30 27 27 30 32
23 21 21 21 23 21 19 18 16 15 15 13 14 13 14 15 15 16 19 20 19 18 18 20 23 26 28 26 27 27 29 30 30 27 28 29 30 32
24 21 20 21 22 22 19 18 15 14 14 16 14 14 15 15 15 16 16 16 16 16 17 20 26 21 20 20 25 26 27 28 27 26 27 27 29 29
25 23 21 22 22 22 19 17 16 17 17 18 14 16 15 14 14 15 15 15 15 14 16 19 21 20 19 20 21 26 26 27 27 26 25 26 28 26
23 25 23 23 25 23 20 20 18 18 17 15 16 16 15 15 13 14 14 14 13 13 14 18 19 24 24 23 23 24 24 25 25 25 25 26 27 25
23 23 24 23 24 24 23 22 20 19 18 19 16 14 16 14 13 13 13 13 14 13 13 14 19 25 26 24 24 23 23 24 23 24 24 24 22 22
25 25 25 25 25 25 23 21 21 19 17 17 15 14 14 12 14 12 13 12 13 12 10 11 17 19 25 21 24 23 22 24 24 24 22 24 24 24

GFSNE_sfc_30mbdewp_057.txt.gz
Dewpoint
35 36 35 35 36 35 31 27 24 22 21 22 21 21 22 21 21 23 22 24 27 26 27 25 22 22 23 24 24 24 25 27 27 27 27 28 31 33
33 32 33 33 32 29 27 26 26 24 22 22 21 21 21 21 20 24 22 23 23 24 24 28 27 24 23 24 23 22 25 30 28 27 26 25 27 31
32 32 31 30 29 28 28 27 24 20 18 18 19 20 19 19 21 22 22 21 21 22 24 24 25 27 28 27 26 26 26 28 28 26 26 26 26 28
30 30 29 29 27 28 22 20 17 17 17 17 18 18 18 19 19 19 19 18 19 20 23 25 25 25 25 26 29 29 29 29 28 27 27 25 25 25
30 29 29 27 26 20 17 16 16 16 18 18 17 17 16 18 18 19 20 21 22 21 23 23 23 25 26 26 25 28 28 31 31 31 30 29 28 26
29 29 28 24 17 16 15 14 16 18 18 18 17 16 17 18 20 20 19 21 24 24 24 25 25 25 25 26 28 26 29 30 31 32 31 32 31 32
26 25 21 20 20 17 15 18 19 17 17 17 17 18 18 19 21 19 24 23 21 22 21 20 24 23 23 26 26 26 27 29 31 31 33 32 32 34
23 23 21 19 19 21 22 21 20 17 16 18 18 19 19 20 25 21 20 17 15 18 22 20 22 22 24 25 26 27 28 30 30 30 32 31 32 36
24 22 21 22 21 19 19 19 18 17 16 19 18 19 22 22 21 18 18 19 20 21 22 22 23 24 25 25 26 27 27 28 29 29 30 30 31 33
23 22 21 21 20 19 18 17 17 17 18 18 19 18 18 17 19 20 22 22 22 22 23 22 24 25 26 26 27 28 29 28 29 30 29 28 29 35
24 22 24 21 21 20 18 16 16 17 17 19 17 18 20 21 21 22 23 22 20 20 24 22 24 23 25 26 27 28 29 30 30 29 30 29 29 32
24 24 22 19 20 20 18 16 15 15 18 18 17 19 20 20 23 23 23 21 21 19 20 21 21 23 23 26 29 29 29 32 32 30 29 30 29 29
24 24 22 21 21 21 20 17 16 17 19 18 18 19 17 20 21 22 23 24 23 22 24 25 24 25 26 25 25 29 31 31 31 30 31 30 30 29
23 23 23 24 23 22 21 21 19 19 18 16 18 14 16 16 18 21 22 23 23 24 25 29 27 27 26 24 24 27 29 32 32 29 28 29 31 30
24 23 24 24 23 24 24 22 21 19 16 15 16 14 13 16 19 19 20 21 23 24 25 30 30 29 28 26 25 25 27 30 32 32 31 27 27 28
27 25 24 25 24 22 21 21 20 18 16 17 14 12 15 16 17 18 18 18 22 21 22 23 28 29 27 27 27 26 26 26 31 28 27 29 30 29
27 26 25 22 20 21 22 20 19 17 15 14 12 13 14 15 15 17 17 20 20 19 18 19 22 26 30 28 24 25 25 27 31 28 26 25 28 31
25 22 20 19 19 20 22 21 19 17 16 13 13 14 13 15 15 16 17 17 16 16 16 18 24 21 25 26 27 26 28 28 29 27 28 29 29 30
25 22 21 19 18 19 23 21 18 17 14 16 16 13 14 15 14 15 16 15 15 15 15 19 22 20 17 17 26 26 25 28 26 25 27 28 27 28
25 23 21 20 20 21 23 21 19 16 16 16 15 13 13 15 14 13 14 14 15 15 14 15 18 19 20 19 20 24 26 25 26 25 26 27 28 29
24 24 23 22 22 21 22 22 17 16 16 15 15 14 16 15 13 12 13 13 13 14 13 12 13 18 25 25 22 23 23 25 25 23 24 25 25 24
24 24 23 24 23 24 25 23 19 17 17 16 16 17 12 14 11 11 12 13 13 14 12 11 15 21 24 24 23 21 22 22 23 25 25 24 22 21
25 25 25 25 24 24 24 23 21 19 18 17 16 13 13 12 10 13 12 13 12 12 11 10 13 17 20 21 23 22 22 22 23 21 21 24 25 25

GFSNE_sfc_30mbdewp_060.txt.gz
Dewpoint
35 35 36 36 36 36 35 34 30 26 25 23 22 22 21 21 22 24 24 24 28 26 24 22 21 21 22 22 23 23 23 23 22 24 27 28 27 28
32 31 32 32 31 29 28 28 28 30 26 22 20 20 20 18 18 22 22 22 23 24 26 23 22 22 21 20 21 22 22 22 22 23 25 30 28 27
31 31 32 31 29 29 31 31 27 20 17 17 19 19 19 19 17 19 21 20 20 22 24 24 26 26 25 26 26 25 25 25 24 25 28 28 28 27
28 30 30 30 28 26 22 19 17 17 16 14 17 18 18 17 17 19 19 19 21 22 22 24 24 23 25 26 28 29 28 28 28 27 27 27 27 28
28 30 29 28 27 22 18 17 16 16 18 18 17 18 18 17 18 19 20 21 22 23 22 21 20 21 22 25 28 28 29 29 30 30 31 32 31 28
30 30 29 27 24 18 17 15 16 18 18 17 17 16 17 19 20 20 21 22 23 21 20 19 19 21 25 24 22 23 26 29 29 31 31 33 33 32
28 28 24 21 20 19 16 17 18 17 17 16 15 17 18 18 18 22 21 20 19 19 18 19 22 21 21 23 24 25 25 27 28 29 30 31 32 33
30 29 24 22 23 21 23 21 19 16 16 15 16 17 18 20 22 20 18 18 16 19 20 20 22 22 23 24 25 27 27 27 29 29 29 30 31 33
27 24 22 22 23 22 21 20 18 19 17 16 17 18 20 18 17 18 18 20 19 21 23 21 22 22 24 25 27 27 28 28 29 29 30 29 31 31
24 23 22 22 21 20 19 18 17 17 16 17 19 19 18 19 20 21 24 23 23 23 23 20 20 21 24 25 25 28 30 30 30 30 30 30 30 28
25 24 22 23 22 22 19 17 18 16 14 18 18 19 20 18 20 22 20 20 18 18 21 21 20 21 21 23 26 28 30 30 30 30 31 31 31 29
25 24 24 21 22 21 20 18 16 15 15 18 18 18 20 19 19 20 21 19 19 18 20 21 21 22 21 23 26 26 28 30 30 30 33 32 31 30
25 23 24 23 22 22 22 20 17 17 18 20 19 18 19 17 18 19 21 21 20 19 21 23 23 23 25 23 26 25 28 28 31 31 31 31 31 30
25 25 24 24 24 24 24 23 23 22 20 19 17 16 17 14 16 18 20 21 22 22 22 25 24 26 26 23 23 25 26 28 31 29 28 30 31 30
27 25 25 24 24 25 25 25 23 22 20 18 16 16 15 13 17 18 18 19 20 22 23 23 23 24 26 25 25 25 26 26 31 30 30 28 28 28
28 27 26 27 24 24 23 22 21 21 19 17 15 15 14 15 16 16 17 18 20 19 20 21 21 23 24 26 26 24 26 24 26 30 27 28 28 27
27 27 25 24 24 23 21 21 22 21 19 17 15 12 14 14 15 16 16 18 17 16 16 18 21 24 28 27 24 24 25 26 28 28 26 25 27 29
27 23 23 22 21 20 19 19 20 22 19 16 12 14 14 13 15 15 15 16 16 16 16 17 21 21 20 25 27 24 26 27 28 27 28 28 27 30
26 23 22 20 19 19 19 19 19 21 19 15 15 15 13 14 15 14 13 15 14 15 16 16 17 18 16 15 20 26 24 26 25 26 26 27 26 26
27 25 23 21 20 20 20 20 21 20 17 15 16 14 11 14 14 14 12 13 14 14 14 14 13 14 17 18 20 22 25 23 24 25 25 26 27 29
25 25 25 24 22 21 21 21 21 19 17 14 15 14 12 15 14 12 11 12 13 14 12 11 11 18 21 23 20 21 22 25 25 23 24 24 24 24
26 25 24 24 24 23 22 22 21 20 18 14 14 13 14 14 13 10 11 12 13 13 12 11 13 19 22 23 22 21 21 21 23 24 26 25 22 21
27 26 25 25 24 24 24 24 23 21 19 18 17 15 14 13 12 10 12 13 11 10 11 10 12 15 16 22 22 22 21 21 22 20 21 25 28 28

GFSNE_sfc_30mbdewp_063.txt.gz
Dewpoint
31 32 32 34 35 35 35 35 33 28 25 24 22 22 19 19 19 21 21 22 23 24 23 23 22 22 22 21 21 22 22 23 23 24 24 24 24 25
31 31 31 32 31 30 30 30 31 30 26 25 22 20 19 19 18 18 19 21 22 20 20 21 22 22 22 22 22 23 23 24 24 24 24 24 25 25
30 29 29 32 30 30 31 32 32 30 26 19 20 19 18 18 18 18 20 20 20 21 21 21 22 26 26 26 26 25 24 24 24 25 25 25 25 26
29 28 30 31 30 28 26 23 21 18 17 14 17 18 18 18 17 18 19 19 21 22 23 24 23 22 23 22 24 25 27 28 27 25 25 26 27 27
30 28 29 29 28 26 22 19 17 16 17 17 17 18 17 17 18 19 20 21 22 22 19 19 18 19 21 22 23 24 27 26 27 29 30 29 28 28
30 30 30 29 28 27 22 17 16 16 18 18 17 15 16 18 19 19 20 21 18 19 19 20 20 20 21 22 23 24 24 24 26 28 30 31 32 32
27 28 29 27 26 22 18 16 16 18 17 16 15 14 15 17 18 20 20 18 18 19 19 19 20 21 22 23 24 25 26 27 27 27 29 30 31 31
29 30 31 28 26 26 22 20 19 17 16 16 15 12 15 18 20 19 18 18 16 19 20 21 22 21 22 23 24 26 27 27 28 29 29 31 31 30
29 28 26 22 22 23 24 23 22 20 20 17 14 15 17 19 17 18 19 19 20 21 22 19 21 21 22 22 24 25 26 27 29 29 30 30 30 31
28 26 23 21 22 22 20 19 18 18 18 16 16 19 19 19 20 20 22 22 22 21 22 18 20 21 22 23 24 24 27 29 31 31 31 31 31 31
26 25 24 23 23 25 21 19 19 19 17 16 19 19 20 20 18 19 16 18 16 17 19 20 20 20 21 22 23 25 28 30 30 31 30 30 31 32
25 25 26 25 23 24 22 19 18 18 16 15 17 19 18 19 20 18 18 17 17 15 20 19 18 21 20 22 23 24 25 25 28 30 29 29 30 31
25 26 26 25 25 24 23 20 20 20 17 17 19 19 19 19 18 17 18 19 17 16 18 21 21 21 23 23 24 25 25 26 28 30 32 31 31 32
27 27 26 26 26 25 24 24 25 24 22 21 20 18 18 17 16 16 18 19 20 20 21 22 21 22 21 20 21 23 25 26 29 31 29 29 31 30
29 28 28 27 29 26 26 26 26 24 22 20 19 18 17 17 15 18 17 18 19 21 22 22 22 22 22 21 23 24 24 25 27 29 31 29 27 28
30 30 29 28 28 27 25 25 24 22 20 20 18 17 16 14 14 16 15 16 18 17 18 19 20 22 22 24 26 23 24 24 26 27 28 28 28 26
26 27 26 25 24 24 23 23 23 21 20 19 18 16 14 14 14 16 16 15 16 15 15 17 18 21 22 26 23 23 24 27 28 29 27 26 26 28
27 26 24 23 22 22 22 21 21 20 20 20 18 15 13 14 13 15 15 14 14 14 15 16 16 17 18 20 27 23 24 25 27 26 27 27 26 29
27 25 23 23 22 22 21 21 20 19 19 19 19 15 14 14 13 14 14 13 13 14 14 16 15 15 15 14 18 26 23 23 24 24 25 25 25 26
28 26 24 22 22 22 21 21 20 20 19 19 17 15 14 13 13 14 14 11 12 13 14 13 13 13 15 15 17 19 26 23 22 23 24 26 27 28
26 26 26 25 23 23 22 21 20 20 19 17 17 15 14 12 13 13 13 11 12 13 12 11 11 15 20 20 17 19 22 24 24 23 23 23 23 23
27 26 26 26 26 24 23 22 21 20 19 18 16 15 15 12 15 13 10 11 13 12 11 11 12 15 20 22 21 20 21 20 22 24 26 26 21 20
24 27 27 26 25 25 24 23 21 21 20 19 18 16 14 12 14 12 10 12 12 10 10 8 11 14 17 20 21 21 21 21 21 20 22 25 27 27

GFSNE_sfc_30mbdewp_069.txt.gz
Dewpoint
36 36 33 31 31 30 31 31 30 25 20 22 26 27 27 26 23 20 20 17 20 21 21 22 23 23 23 24 24 24 24 24 24 24 24 24 25 25
34 33 32 31 30 30 29 30 29 27 23 22 24 26 26 21 18 20 19 18 16 20 22 22 24 24 24 24 23 24 25 26 27 27 27 27 27 27
33 32 31 31 29 29 30 30 28 29 26 24 27 24 21 19 19 19 17 14 15 18 22 23 24 24 24 25 24 24 24 24 25 25 25 26 26 28
32 32 31 29 30 30 30 29 28 29 30 26 24 19 19 19 19 18 14 13 16 16 21 20 20 21 21 21 22 23 23 23 23 24 24 24 25 25
32 32 31 30 29 28 29 28 27 27 26 26 22 18 19 19 18 16 13 16 16 16 16 16 18 21 23 22 23 24 24 24 24 24 25 26 27 27
33 32 31 30 28 28 29 29 28 26 28 24 19 18 18 18 17 14 11 13 12 13 14 17 19 19 21 22 22 23 24 25 26 26 28 29 29 28
33 32 31 31 31 30 27 27 27 26 25 21 18 17 17 16 15 12 13 13 14 15 15 15 15 14 16 17 18 21 23 24 26 27 27 28 29 30
30 30 30 30 31 32 33 32 30 25 22 20 18 18 18 16 16 14 14 14 12 15 15 14 15 14 15 16 17 21 23 24 25 26 26 28 29 30
30 30 28 28 30 28 28 25 26 26 22 20 21 20 20 19 14 14 14 13 13 13 13 14 15 15 17 17 19 21 23 25 27 27 27 29 30 32
30 30 29 28 28 28 25 23 22 23 23 22 21 20 20 17 14 16 17 17 16 14 13 15 16 15 17 18 20 23 25 25 26 27 28 31 31 31
30 30 29 28 28 28 25 25 24 23 22 22 22 22 22 19 21 19 18 17 15 14 14 16 15 13 16 18 21 22 23 25 27 28 28 28 29 30
29 29 29 29 29 27 27 27 27 24 21 20 20 20 18 18 21 20 18 17 14 13 12 13 12 14 15 17 21 21 23 24 26 27 28 28 29 29
26 26 28 29 28 29 28 28 28 26 23 21 20 19 18 17 19 19 19 18 16 14 13 12 15 15 15 15 16 18 21 24 26 28 28 29 30 31
30 28 27 28 29 29 29 29 29 26 27 24 22 21 21 20 20 20 19 18 17 16 14 16 18 16 16 14 14 16 19 24 27 27 28 29 30 31
30 32 31 28 29 29 30 31 30 29 27 25 23 21 21 21 21 21 19 18 18 17 15 16 17 16 15 17 16 17 19 22 25 28 30 30 30 30
28 30 31 30 30 30 29 29 30 29 27 25 25 23 24 22 21 20 18 17 17 16 15 16 16 16 16 15 15 16 18 22 24 26 29 31 30 30
31 30 29 28 27 27 27 27 27 26 26 25 26 24 23 22 21 21 18 17 16 13 13 13 14 15 16 15 15 16 18 24 23 26 27 26 27 28
29 28 26 27 27 26 26 25 25 25 25 24 24 23 23 21 20 21 18 17 15 14 13 12 12 12 15 16 19 19 23 24 24 26 28 26 26 28
28 28 27 28 27 28 26 25 25 25 26 25 24 23 23 20 21 20 18 17 15 14 13 13 12 12 14 14 16 22 22 20 23 23 24 25 26 28
17 19 22 26 27 27 27 26 25 25 25 25 24 24 23 20 21 19 18 17 15 13 12 11 10 10 14 16 16 18 20 23 22 22 22 24 26 28
13 13 15 17 18 21 27 27 26 26 25 25 24 23 23 21 21 20 18 16 15 13 11 11 9 11 14 19 18 20 24 25 25 24 23 22 24 24
10 10 12 13 15 17 18 20 26 26 25 24 23 24 23 21 21 20 19 17 15 13 12 12 9 12 16 20 19 22 22 24 23 24 26 25 23 21
8 8 9 11 12 14 14 14 16 22 25 24 23 23 23 21 21 21 20 17 15 13 13 11 7 12 16 18 19 20 22 22 22 21 24 25 26 26

GFSNE_sfc_30mbdewp_075.txt.gz
Dewpoint
35 34 33 32 30 28 28 27 25 24 22 21 20 22 23 24 25 25 27 29 28 26 25 23 21 24 25 25 26 27 27 27 26 26 26 25 25 26
33 33 33 32 30 28 28 27 26 24 24 22 21 23 24 21 23 25 25 26 24 25 27 24 21 22 24 25 25 25 26 26 26 26 26 26 27 28
33 32 32 32 30 29 28 27 26 25 24 24 23 23 24 26 24 26 25 23 24 22 25 22 21 21 22 24 24 24 24 24 25 25 25 25 26 26
32 32 30 29 29 29 29 28 27 26 25 24 24 23 24 24 26 29 24 22 21 17 21 21 21 22 21 22 21 23 24 24 24 24 25 24 25 25
31 29 28 28 28 29 29 27 27 24 24 24 23 24 23 23 23 25 25 23 21 17 18 19 19 21 21 20 21 23 23 24 24 24 24 25 25 25
27 27 27 27 27 28 28 28 26 26 24 23 22 21 22 23 25 25 24 23 18 15 12 14 16 18 20 22 23 23 24 23 23 23 24 26 27 27
25 25 25 26 29 30 28 29 28 26 25 23 22 22 24 25 24 24 24 22 20 15 14 16 16 15 16 19 22 24 23 22 22 23 24 25 27 27
22 21 22 23 24 28 29 30 29 28 27 26 25 24 25 27 24 24 23 20 17 17 14 17 16 15 16 17 18 17 20 21 22 23 25 26 28 29
21 22 22 21 24 24 26 30 30 30 30 29 27 25 26 26 24 21 20 20 17 14 16 17 18 18 18 15 20 22 22 22 22 26 26 28 29 30
25 25 26 27 27 27 27 27 27 27 30 30 29 27 25 24 24 24 23 19 17 16 17 18 20 18 19 19 18 21 23 24 24 25 26 27 29 29
28 27 26 27 28 29 29 29 29 30 28 25 25 27 27 25 23 23 23 21 21 19 19 18 18 16 16 17 20 24 24 24 26 27 27 28 29 30
24 22 23 22 23 27 30 31 32 29 29 30 27 27 26 24 25 23 22 21 19 18 18 17 20 16 15 17 18 20 22 21 21 23 26 28 30 28
23 23 24 24 25 27 29 30 31 31 29 32 32 27 31 28 24 24 23 22 21 20 19 18 18 16 16 16 17 19 21 22 23 27 26 27 31 30
24 26 27 28 29 29 28 28 29 31 31 30 31 31 28 26 25 24 26 24 23 22 21 21 21 19 19 17 16 18 20 22 23 24 27 28 28 28
24 26 28 29 30 30 30 30 30 31 30 29 29 29 28 29 27 28 27 26 25 24 23 22 20 19 19 19 18 18 19 21 21 23 29 27 27 28
22 24 25 27 28 30 30 31 30 31 30 29 27 27 29 30 29 28 28 29 26 24 23 23 22 21 18 18 17 18 18 17 20 22 25 28 27 29
22 24 25 26 26 26 28 28 30 31 30 29 27 26 26 24 26 28 29 26 26 22 20 20 21 22 21 19 18 17 18 21 22 26 27 24 25 28
18 19 20 23 22 22 24 25 30 31 31 29 28 27 26 25 24 27 27 26 24 22 18 17 15 16 16 17 19 20 24 24 24 27 23 25 24 26
14 14 16 18 19 20 20 21 21 24 29 31 28 30 28 26 25 26 26 26 24 20 18 17 16 15 13 15 16 25 21 19 22 22 25 25 25 25
11 11 12 14 15 15 17 19 20 21 23 24 30 30 30 29 26 26 25 24 24 19 17 14 14 12 13 14 17 20 24 23 22 23 23 24 25 25
10 10 11 11 13 14 15 17 19 20 20 22 23 27 30 27 28 27 26 23 23 19 16 14 13 13 14 12 15 19 25 28 24 22 21 21 20 21
11 10 10 11 12 13 14 16 16 16 18 19 20 22 25 27 27 27 26 25 21 18 17 16 14 13 11 10 13 18 20 28 25 25 25 24 21 19
11 11 10 12 11 10 11 12 12 13 15 17 18 17 18 20 26 28 27 25 22 22 17 15 13 12 9 10 12 14 18 22 22 24 26 25 25 25

GFSNE_sfc_30mbdewp_081.txt.gz
Dewpoint
40 41 41 40 37 36 35 32 29 27 27 28 28 29 28 26 27 37 34 36 35 35 34 33 32 31 30 28 25 24 24 24 25 26 27 27 27 27
43 44 41 38 37 37 35 33 32 30 28 30 29 29 28 28 28 32 30 31 37 35 35 34 33 31 31 28 24 24 23 22 24 26 26 26 26 26
45 42 39 38 37 36 35 34 32 32 30 30 30 29 28 28 28 29 31 33 33 36 34 33 33 33 33 28 25 25 23 23 25 26 26 26 26 25
41 38 37 36 36 36 36 34 33 32 31 30 30 29 28 28 29 28 29 30 30 30 33 31 30 30 28 29 27 27 26 25 26 26 26 26 26 25
39 36 36 34 32 32 32 32 32 32 32 31 30 28 27 27 25 25 25 27 30 31 31 29 29 32 31 28 29 28 28 28 29 27 27 27 27 26
36 33 31 29 29 28 29 29 30 31 30 29 28 27 26 26 26 25 24 27 27 28 27 25 23 26 29 30 31 31 30 30 30 29 29 29 29 27
27 27 26 26 27 27 26 25 26 26 27 27 28 28 27 26 25 25 26 27 30 31 31 30 23 20 20 20 23 27 25 27 25 30 30 30 30 27
24 25 26 25 25 26 30 30 30 29 28 28 28 28 28 28 28 27 26 28 27 30 28 23 21 19 20 20 19 21 25 25 23 24 25 27 27 27
24 25 27 29 30 28 26 25 25 26 29 29 29 29 29 30 30 31 30 27 27 26 20 18 20 17 19 20 22 24 24 25 27 27 27 27 27 28
30 29 27 26 25 25 25 24 24 25 26 27 28 30 31 31 32 31 30 28 26 24 20 18 19 19 20 22 24 26 23 24 24 24 26 27 28 29
27 26 26 25 25 27 26 26 27 27 27 27 28 29 32 33 34 33 29 26 23 22 23 21 21 20 21 22 22 23 24 24 25 26 25 25 25 27
24 25 25 26 27 28 27 26 24 24 25 26 27 28 28 29 32 33 30 26 25 22 23 21 20 21 19 21 20 20 20 20 21 22 24 25 25 26
22 23 24 25 26 25 25 26 26 27 29 29 30 28 28 27 26 29 31 28 26 23 22 20 19 19 19 19 20 20 20 19 20 22 23 24 25 25
21 22 23 22 21 23 26 28 29 29 28 27 27 26 26 26 27 29 31 29 28 26 23 23 20 20 20 21 21 20 19 20 21 21 22 24 25 27
20 19 19 20 22 24 24 23 24 25 25 24 26 28 26 26 28 29 31 31 30 27 25 24 22 23 23 23 21 20 19 19 20 21 22 21 23 24
19 19 20 21 23 21 20 20 22 21 21 22 21 23 26 28 28 30 30 30 29 28 29 26 25 25 25 23 22 20 21 19 19 20 22 23 25 28
18 19 19 19 19 18 18 18 18 19 18 18 20 19 21 23 28 29 29 29 27 25 25 27 27 26 28 24 21 22 22 21 21 22 23 25 26 24
17 18 17 15 15 16 16 16 15 15 15 16 16 17 18 20 21 28 29 27 26 25 25 26 26 25 24 24 25 23 22 21 22 25 24 21 21 24
16 15 13 13 13 15 15 14 13 14 15 15 14 14 17 17 18 18 26 27 26 25 25 25 25 24 20 18 18 25 22 22 22 20 20 21 23 21
15 15 13 13 13 14 14 13 13 13 13 13 12 13 13 15 14 15 16 25 26 25 25 25 24 22 20 17 16 18 25 19 17 17 21 23 22 22
15 14 12 12 12 13 13 12 12 12 11 10 10 12 12 11 11 12 14 16 18 26 24 23 23 22 21 16 12 11 12 18 22 21 23 21 20 20
13 11 13 13 11 11 10 10 9 9 9 8 9 11 10 9 9 10 11 12 14 21 25 24 21 17 16 14 13 11 11 15 25 28 27 24 20 16
11 11 11 10 10 9 10 8 8 7 7 8 9 7 7 6 7 9 9 10 14 16 24 23 20 19 18 17 15 13 12 13 17 22 25 27 27 25

GFSNE_sfc_30mbdewp_087.txt.gz
Dewpoint
46 45 44 44 44 41 38 36 34 31 30 30 29 30 31 31 31 31 32 35 38 40 40 40 41 39 39 36 35 34 35 34 31 28 25 25 25 26
46 45 45 45 44 44 41 37 35 34 31 31 30 30 31 31 31 32 31 34 36 39 41 40 39 39 38 38 36 36 36 34 32 28 25 24 25 25
46 45 45 44 43 43 41 39 37 34 32 32 32 32 31 31 30 31 31 31 32 35 36 38 39 38 38 37 36 37 37 34 32 30 24 24 24 24
45 44 43 44 43 42 40 38 36 35 33 32 32 31 31 31 31 30 30 29 29 31 32 33 36 38 38 37 36 36 36 33 32 31 25 23 24 24
45 44 44 44 42 40 38 36 35 34 33 31 30 31 30 29 28 28 27 27 27 29 32 35 36 37 38 37 36 37 36 33 32 31 30 30 26 26
45 45 44 42 41 38 33 31 30 28 28 27 27 27 28 28 28 27 26 27 27 27 27 29 29 30 33 34 35 35 33 31 31 31 32 32 31 30
44 42 40 38 33 29 27 25 26 26 26 26 25 25 25 25 25 26 26 27 28 27 27 28 29 30 30 31 32 32 33 33 32 32 32 30 29 28
38 32 30 32 30 29 28 27 25 24 23 23 23 23 23 24 25 25 27 27 24 28 28 28 30 29 28 26 27 29 28 25 23 24 28 29 26 26
32 29 29 27 27 25 25 25 24 25 26 25 24 23 23 24 25 26 26 26 26 25 27 27 27 26 26 23 24 25 25 26 26 28 29 27 26 28
29 29 27 25 27 28 27 25 26 25 25 26 26 26 26 26 27 27 27 28 28 27 29 25 26 25 23 22 23 25 26 27 29 30 27 27 27 27
26 26 25 25 26 26 24 22 22 24 25 26 27 28 29 30 30 30 27 26 24 24 26 27 26 24 22 22 22 25 26 28 29 27 25 23 23 24
23 23 23 23 24 24 23 23 24 24 26 27 27 26 27 29 29 30 28 25 25 23 23 24 24 25 24 23 22 23 24 25 22 22 23 21 21 24
21 20 21 21 20 21 24 26 24 23 23 24 23 23 24 23 24 27 30 29 26 25 25 27 27 26 25 18 20 21 20 20 21 22 22 22 22 22
19 20 20 20 21 24 25 19 20 21 20 19 19 19 18 20 20 21 23 26 30 29 28 30 27 25 23 22 22 21 21 21 20 20 20 21 23 24
19 19 19 20 22 24 19 18 19 19 18 17 15 14 17 16 17 19 20 21 23 27 30 31 29 27 26 24 22 20 20 21 21 20 20 21 20 21
20 19 20 21 23 20 19 19 17 17 15 14 14 15 13 14 13 16 17 16 19 19 26 30 30 29 26 25 24 21 22 21 21 21 20 21 22 23
19 20 20 19 17 17 16 15 14 13 12 13 14 11 10 11 11 14 13 13 15 15 16 23 30 29 29 26 23 24 24 24 23 22 22 21 22 24
18 17 15 14 14 15 15 14 12 12 12 11 11 10 8 9 10 9 10 11 11 12 14 16 26 25 25 27 28 25 23 23 23 23 22 21 22 23
18 17 14 13 14 15 14 12 12 12 11 11 10 7 8 9 8 7 7 8 8 9 11 15 18 24 20 19 21 28 24 23 22 21 21 21 20 20
18 15 13 13 13 12 11 10 10 7 6 8 6 5 6 6 5 4 5 5 6 7 8 11 15 24 22 19 18 19 27 22 21 19 19 19 20 21
13 12 12 11 10 10 8 8 6 5 4 4 5 4 5 3 4 4 4 4 4 5 6 8 11 18 19 23 20 16 16 24 24 21 16 17 20 19
11 11 11 10 7 7 6 4 4 2 2 3 4 4 3 2 2 3 3 3 2 3 6 8 12 16 21 21 19 16 15 12 16 23 22 18 19 15
7 7 8 7 6 6 5 3 2 1 1 3 3 3 2 1 3 4 3 2 2 3 5 7 10 13 21 22 18 16 14 13 14 16 18 25 25 24

GFSNE_sfc_30mbdewp_090.txt.gz
Dewpoint
46 45 44 44 43 43 42 40 40 34 31 31 30 31 31 31 31 33 34 33 35 37 39 40 42 42 42 42 41 38 37 35 35 35 33 31 30 27
47 45 45 45 44 44 42 38 36 36 36 33 31 31 31 31 32 34 33 34 34 35 36 39 41 41 41 41 41 39 37 36 36 35 32 33 32 27
47 46 46 46 45 44 43 40 38 36 35 34 32 32 31 31 32 32 32 32 32 34 36 37 39 40 40 40 39 39 38 37 36 33 33 32 32 28
47 46 46 46 45 44 42 41 39 37 35 33 33 32 32 32 31 31 31 30 30 30 33 35 37 38 39 39 38 38 38 38 37 37 35 32 31 27
47 47 46 45 44 43 42 40 39 37 35 33 32 31 31 30 29 28 28 28 28 29 30 31 32 35 38 39 38 38 37 37 37 37 36 33 32 26
48 46 46 45 44 42 41 39 38 36 32 31 29 28 28 28 28 27 26 27 26 27 28 29 30 31 32 34 36 36 36 36 37 35 33 32 32 31
46 45 44 44 43 41 38 36 34 29 26 25 25 26 26 25 25 25 25 25 27 28 27 28 28 29 30 31 32 34 33 34 33 31 30 32 32 32
42 40 38 37 36 34 32 30 28 27 25 25 24 23 23 24 24 24 24 24 23 27 27 26 28 27 29 29 30 30 32 34 34 33 33 33 33 32
36 34 33 33 30 29 27 25 25 25 25 24 23 23 23 24 25 24 25 25 24 25 26 25 26 26 28 27 28 29 30 30 29 26 26 27 29 29
35 33 30 28 28 27 26 25 25 25 23 24 25 25 26 26 27 27 27 27 26 26 28 25 25 24 26 27 27 28 29 29 27 27 29 30 30 28
29 28 27 27 28 28 25 22 21 23 26 27 28 28 28 28 29 29 26 27 24 23 25 26 25 24 25 25 25 26 27 28 29 29 30 30 29 28
27 27 27 27 25 24 23 22 22 25 23 24 22 22 23 25 25 28 28 26 25 23 24 25 24 24 23 25 24 25 26 28 29 28 28 24 23 22
25 23 22 22 23 24 26 26 24 22 20 19 18 20 22 19 22 22 20 21 21 22 25 27 25 25 25 24 22 22 23 24 26 25 24 24 23 21
24 22 22 23 24 26 25 22 19 19 19 16 16 15 14 16 16 16 18 21 22 22 22 25 27 26 25 23 22 23 23 24 23 21 22 23 23 23
22 23 23 23 24 25 21 20 19 18 16 15 13 12 14 13 12 13 13 17 16 16 19 21 23 26 28 24 24 23 24 25 24 22 22 22 22 22
23 23 22 22 24 22 22 21 19 18 16 15 13 13 11 10 9 10 11 12 12 13 14 17 19 20 26 27 25 25 24 23 23 23 23 22 23 23
22 22 21 21 20 19 19 18 18 17 15 14 12 10 8 7 7 9 9 8 9 9 10 11 14 16 20 28 25 25 24 24 23 23 22 21 23 24
20 18 17 16 16 16 16 15 15 14 12 10 10 9 7 6 6 7 6 6 6 6 7 8 11 14 17 26 29 25 25 24 24 24 23 22 22 23
18 18 14 13 14 15 14 13 11 11 10 8 9 7 6 6 6 4 3 3 3 3 5 7 10 12 12 15 23 29 24 23 23 23 23 23 21 21
15 13 12 12 12 11 10 9 9 7 5 5 5 5 4 5 4 3 3 3 3 3 3 3 6 10 11 10 14 23 28 24 23 22 20 21 22 22
10 10 12 10 9 8 7 5 4 4 2 1 2 2 3 3 2 2 2 2 2 1 1 2 4 8 14 17 16 20 22 26 23 21 20 19 18 20
6 7 7 7 5 5 4 3 2 2 1 1 2 2 2 1 1 1 2 2 1 1 2 3 5 7 11 12 16 19 17 16 23 26 22 18 19 17
3 4 5 4 4 4 3 1 -0 -1 -1 0 2 2 1 -0 1 2 2 2 1 1 1 2 4 5 9 12 16 20 15 14 14 14 16 23 22 21